We konden geen weer-waarchuwingen ophalen. Ga rechtstreeks naar de Meteoalarm site : www.meteoalarm.eu en controleer daar .



Onweer radar Meer informatie blitzortung!


Regen radar Meer informatie rain snow radar


Bezoek onze andere website:

Template documentation
and downloads

And another site



15 daagse weersverwachting Växjö (SE)

  • Overzicht
  • Per uur
  • 15 dagen
  • Extra
  • Vergelijk
  • Kaarten
  • Dagkaart
  • Meer »
  • Info
  • Statistieken
  • Directe link
    Temp 6h Neerslag Wind  
 05:37     20:33    Daglengte: 14:56 Vandaag
02:00
19°
 
1
08:00
21°
 
1
14:00
28°
 
3
20:00
25°
 
3
 05:39     20:30    Daglengte: 14:51 Morgen
02:00
19°
 
2
08:00
20°
 
2
14:00
26°
 
2
20:00
21°
39.4 mm
2
warningclass
 05:41     20:28    Daglengte: 14:47 Zaterdag 20 Aug
02:00
19°
51.4 mm
2
08:00
18°
59.8 mm
3
14:00
22°
 
5
20:00
18°
 
3
Locatie info
Region: Kronobergs län
Latitude: 56.8800°N
Longitude: 14.7995°E
169 masl
Postcode: 352 32
Temp/Neerslag /Baro Onweer/Dauwpunt
    Temp Baro 1h Neerslag Dauwpunt Wind UV Bewolking  
 05:37     20:33    Daglengte: 14:56 Vandaag
01:00
19°
1014.5 hPa   17.0°
1
Windvlaag: -0.9 m/s
68%
02:00
19°
1014.5 hPa   16.7°
1
Windvlaag: -0.9 m/s
69%
03:00
18°
1014.3 hPa   16.6°
1
Windvlaag: -1.3 m/s
60%
04:00
18°
1014.2 hPa   16.2°
1
Windvlaag: -1.4 m/s
77%
05:00
18°
1014.1 hPa   16.4°
1
Windvlaag: -0.8 m/s
57%
06:00
17°
1014.0 hPa   16.2°
1
Windvlaag: -0.7 m/s
43%
07:00
18°
1014.3 hPa   16.4°
1
Windvlaag: -1 m/s
35%
08:00
21°
1014.5 hPa   16.9°
1
Windvlaag: 0.4 m/s
44%
09:00
22°
1014.5 hPa   16.4°
2
Windvlaag: 1 m/s
51%
10:00
24°
1014.5 hPa   16.5°
2
Windvlaag: 3 m/s
28%
11:00
26°
1014.3 hPa   16.4°
2
Windvlaag: 4.6 m/s
15%
12:00
27°
1014.0 hPa   15.4°
2
Windvlaag: 5.3 m/s
13%
13:00
28°
Voelt als: 27.8°
1013.7 hPa   14.1°
3
Windvlaag: 5.4 m/s
34%
14:00
28°
Voelt als: 27.9°
1013.2 hPa   12.6°
3
Windvlaag: 5.4 m/s
40%
15:00
29°
Voelt als: 28.2°
1012.8 hPa   12.2°
3
Windvlaag: 6 m/s
27%
16:00
29°
Voelt als: 28.0°
1012.5 hPa
11%
12.9°
4
Windvlaag: 6.7 m/s
25%
17:00
28°
1012.3 hPa
11%
15.9°
4
Windvlaag: 6.9 m/s
22%
18:00
28°
1012.3 hPa
11%
15.8°
4
Windvlaag: 7.1 m/s
35%
19:00
27°
1012.2 hPa
11%
15.7°
4
Windvlaag: 7.3 m/s
25%
20:00
25°
1012.4 hPa
11%
16.3°
3
Windvlaag: 7.3 m/s
31%
21:00
23°
1012.8 hPa
11%
17.2°
3
Windvlaag: 6.8 m/s
25%
22:00
21°
1012.9 hPa
11%
18.0°
2
Windvlaag: 5.8 m/s
21%
23:00
20°
1013.1 hPa
11%
18.4°
2
Windvlaag: 4.8 m/s
32%
 05:39     20:30    Daglengte: 14:51 Morgen
00:00
19°
1013.1 hPa
11%
18.5°
2
Windvlaag: 4.1 m/s
22%
01:00
19°
1013.0 hPa
11%
18.4°
2
Windvlaag: 3.7 m/s
18%
02:00
19°
1012.9 hPa
12%
18.2°
2
Windvlaag: 3.7 m/s
17%
03:00
18°
1012.7 hPa
12%
18.0°
2
Windvlaag: 3 m/s
17%
04:00
18°
1012.7 hPa
12%
17.8°
2
Windvlaag: 2.5 m/s
22%
05:00
18°
1012.5 hPa
14%
17.8°
2
Windvlaag: 2.7 m/s
15%
06:00
18°
1012.5 hPa
14%
17.8°
2
Windvlaag: 3.7 m/s
18%
07:00
19°
1012.9 hPa
14%
18.6°
1
Windvlaag: 3.3 m/s
27%
08:00
20°
1012.9 hPa
14%
19.7°
2
Windvlaag: 4.6 m/s
38%
09:00
22°
1013.0 hPa
14%
20.8°
2
Windvlaag: 5.3 m/s
46%
10:00
23°
1013.1 hPa
14%
21.5°
2
Windvlaag: 5.1 m/s
43%
11:00
24°
1013.2 hPa
14%
21.8°
2
Windvlaag: 3.3 m/s
48%
12:00
26°
1013.0 hPa
14%
21.9°
2
Windvlaag: 2.6 m/s
63%
13:00
26°
1013.0 hPa
73%
21.2°
2
Windvlaag: 2 m/s
79%
14:00
26°
1012.8 hPa
79%
20.5°
2
Windvlaag: 2.7 m/s
78%
15:00
26°
1012.7 hPa
80%
19.7°
2
Windvlaag: 4.6 m/s
81%
16:00
26°
1012.7 hPa
82%
18.0°
2
Windvlaag: 3.1 m/s
81%
17:00
23°
1011.8 hPa 14.1 mm
100%
20.5°
1
Windvlaag: 2.5 m/s
99% warningclass
18:00
23°
1011.7 hPa 8.5 mm
100%
19.9°
2
Windvlaag: 2.9 m/s
99% warningclass
19:00
22°
1011.6 hPa 8.4 mm
100%
19.3°
2
Windvlaag: 0.6 m/s
94% warningclass
20:00
21°
1011.5 hPa 8.4 mm
99%
19.3°
2
Windvlaag: -2 m/s
88% warningclass
21:00
20°
1011.6 hPa 13.3 mm
53%
18.9°
2
Windvlaag: -0.7 m/s
80% warningclass
22:00
20°
1011.5 hPa 8.9 mm
100%
18.8°
2
Windvlaag: -2.6 m/s
81% warningclass
23:00
19°
1011.6 hPa 8.2 mm
97%
18.8°
2
Windvlaag: -3.7 m/s
92% warningclass
 05:41     20:28    Daglengte: 14:47 Zaterdag 20 Aug
00:00
19°
1011.5 hPa 8.0 mm
100%
18.7°
2
Windvlaag: -3.4 m/s
98%
01:00
19°
1011.2 hPa 13.1 mm
99%
17.9°
2
Windvlaag: -3.2 m/s
98%
02:00
19°
1010.9 hPa
95%
17.7°
2
Windvlaag: -1.8 m/s
99%
03:00
19°
1010.9 hPa 14.0 mm
97%
17.1°
2
Windvlaag: -3.8 m/s
100%
04:00
18°
1011.0 hPa 8.5 mm
100%
16.8°
2
Windvlaag: -4.4 m/s
100%
05:00
18°
1010.5 hPa 9.1 mm
100%
16.6°
2
Windvlaag: -3.6 m/s
93%
06:00
18°
1010.7 hPa 14.9 mm
100%
15.5°
2
Windvlaag: -2.2 m/s
92%
07:00
18°
1011.2 hPa 13.4 mm
40%
14.2°
2
Windvlaag: 1.3 m/s
93%
08:00
18°
1010.6 hPa
22%
12.6°
3
Windvlaag: -0.3 m/s
87%
09:00
19°
1010.9 hPa
22%
12.8°
2
Windvlaag: -0.8 m/s
80%
10:00
20°
1010.8 hPa
22%
12.2°
3
Windvlaag: -1.4 m/s
77%
11:00
20°
1011.0 hPa
21%
11.1°
2
Windvlaag: -1.6 m/s
81%
12:00
22°
1010.8 hPa
21%
11.7°
4
Windvlaag: 5.1 m/s
28%
13:00
22°
1010.9 hPa
23%
11.5°
4
Windvlaag: 3.1 m/s
75%
14:00
22°
1011.1 hPa
22%
11.2°
5
Windvlaag: 3.2 m/s
56%
15:00
22°
1011.3 hPa
21%
10.5°
5
Windvlaag: 3.9 m/s
0%
16:00
22°
1011.6 hPa
21%
10.6°
5
Windvlaag: 4.4 m/s
61%
17:00
22°
1012.0 hPa
21%
12.2°
5
Windvlaag: 5 m/s
71%
18:00
21°
1012.3 hPa
21%
14.3°
4
Windvlaag: 5 m/s
54%
19:00
20°
1012.6 hPa
21%
13.0°
4
Windvlaag: 4.9 m/s
44%
20:00
18°
1013.1 hPa
21%
11.5°
3
Windvlaag: 4.7 m/s
24%
21:00
17°
1013.5 hPa
21%
9.3°
2
Windvlaag: 6.8 m/s
47%
22:00
15°
1013.6 hPa
21%
8.8°
2
Windvlaag: 6.8 m/s
60%
23:00
14°
1013.6 hPa
21%
9.8°
2
Windvlaag: 6.9 m/s
68%
 05:43     20:25    Daglengte: 14:42 Zondag 21 Aug
00:00
15°
1013.7 hPa
21%
9.6°
2
Windvlaag: 7.4 m/s
64%
Temp/Neerslag /Baro Onweer/Dauwpunt
    Temp Baro Neerslag Dauwpunt Wind Bewolking  
 05:37     20:33    Daglengte: 14:56 Vandaag
02:00
19°
1014.5 hPa   16.7°
1
69%
05:00
18°
1014.1 hPa   16.4°
1
57%
08:00
21°
1014.5 hPa   16.9°
1
44%
11:00
26°
1014.3 hPa   16.4°
2
15%
14:00
28°
Voelt als: 27.9°
1013.2 hPa   12.6°
3
40%
17:00
28°
1012.3 hPa   15.9°
4
22%
20:00
25°
1012.4 hPa   16.3°
3
31%
23:00
20°
1013.1 hPa   18.4°
2
32%
 05:39     20:30    Daglengte: 14:51 Morgen
02:00
19°
1012.9 hPa   18.2°
2
17%
05:00
18°
1012.5 hPa   17.8°
2
15%
08:00
20°
1012.9 hPa   19.7°
2
38%
11:00
24°
1013.2 hPa   21.8°
2
48%
14:00
26°
1012.8 hPa   20.5°
2
78%
17:00
23°
1011.8 hPa 14.1 mm 20.5°
1
99% warningclass
20:00
21°
1011.5 hPa 25.2 mm 19.3°
2
88% warningclass
23:00
19°
1011.6 hPa 30.3 mm 18.8°
2
92% warningclass
 05:41     20:28    Daglengte: 14:47 Zaterdag 20 Aug
02:00
19°
1010.9 hPa 21.1 mm 17.7°
2
99%
05:00
18°
1010.5 hPa 31.6 mm 16.6°
2
93%
08:00
18°
1010.6 hPa 28.2 mm 12.6°
3
87%
11:00
20°
1011.0 hPa   11.1°
2
81%
14:00
22°
1011.1 hPa   11.2°
5
56%
17:00
22°
1012.0 hPa   12.2°
5
71%
20:00
18°
1013.1 hPa   11.5°
3
24%
23:00
14°
1013.6 hPa   9.8°
2
68%
 05:43     20:25    Daglengte: 14:42 Zondag 21 Aug
02:00
13°
1013.7 hPa   11.8°
1
59%
05:00
12°
1013.8 hPa 8.3 mm 10.9°
2
1%
08:00
16°
1014.4 hPa 8.3 mm 9.7°
2
1%
11:00
21°
1014.1 hPa 8.3 mm 8.9°
2
0%
14:00
23°
1013.4 hPa 8.3 mm 8.2°
2
1%
17:00
24°
1012.8 hPa 8.3 mm 8.7°
3
1%
20:00
18°
1013.7 hPa 8.3 mm 10.6°
2
1%
23:00
14°
1013.9 hPa 8.3 mm 10.2°
2
1%
 05:45     20:23    Daglengte: 14:38 Maandag 22 Aug
02:00
13°
1014.4 hPa 8.3 mm 11.2°
2
1%
05:00
12°
1015.3 hPa 8.3 mm 11.0°
2
1%
08:00
15°
1016.9 hPa 8.3 mm 10.6°
3
1%
11:00
19°
1017.5 hPa 8.3 mm 7.4°
3
1%
14:00
22°
1017.7 hPa 8.3 mm 5.4°
3
1%
17:00
23°
1018.0 hPa 8.3 mm 4.4°
2
1%
20:00
17°
1019.2 hPa 8.3 mm 6.9°
2
1%
23:00
13°
1020.4 hPa 8.3 mm 6.0°
2
1%
 05:47     20:20    Daglengte: 14:33 Dinsdag 23 Aug
02:00
12°
1021.2 hPa 8.3 mm 5.6°
2
1%
05:00
11°
1022.1 hPa 8.3 mm 5.5°
2
1%
08:00
15°
1022.6 hPa 8.3 mm 6.8°
2
1%
11:00
22°
1022.6 hPa 8.3 mm 7.9°
1
0%
14:00
25°
1022.2 hPa 8.3 mm 5.7°
2
1%
17:00
25°
1021.8 hPa 8.3 mm 5.0°
2
1%
20:00
18°
1023.0 hPa 8.3 mm 7.7°
3
1%
23:00
13°
1024.1 hPa 8.3 mm 8.5°
1
0%
 05:49     20:18    Daglengte: 14:29 Woensdag 24 Aug
02:00
12°
1024.1 hPa 8.3 mm 7.2°
2
0%
05:00
12°
1023.4 hPa 8.3 mm 6.9°
2
1%
08:00
16°
1023.3 hPa 8.3 mm 8.0°
2
1%
11:00
22°
1022.6 hPa 8.3 mm 12.9°
2
1%
14:00
24°
1021.6 hPa 8.3 mm 15.2°
2
1%
17:00
24°
1021.1 hPa 8.4 mm 17.4°
1
1%
20:00
21°
1021.3 hPa 8.9 mm 17.4°
1
1%
23:00
17°
1022.2 hPa   16.1°
2
1%
 05:51     20:15    Daglengte: 14:24 Donderdag 25 Aug
02:00
16°
1022.2 hPa 18.7 mm 15.3°
1
1%
08:00
17°
1022.5 hPa 20.3 mm 15.4°
1
1%
14:00
20°
1023.0 hPa 20.7 mm 16.4°
2
1%
20:00
19°
1023.2 hPa 21.6 mm 15.2°
2
1%
 05:53     20:13    Daglengte: 14:20 Vrijdag 26 Aug
02:00
15°
1023.5 hPa 22.9 mm 15.0°
2
1%
08:00
17°
1023.3 hPa 25.6 mm 16.1°
3
1%
14:00
28°
Voelt als: 27.8°
1021.8 hPa 25.6 mm 12.3°
4
1%
20:00
20°
1022.3 hPa 25.6 mm 14.2°
4
1%
 05:55     20:10    Daglengte: 14:15 Zaterdag 27 Aug
02:00
15°
1022.2 hPa 25.6 mm 14.2°
3
1%
08:00
20°
1021.1 hPa 25.6 mm 13.7°
3
0%
14:00
31°
Voelt als: 29.3°
1020.5 hPa 25.6 mm 8.5°
3
0%
20:00
19°
1022.8 hPa 0.3 mm 12.0°
1
55%
 05:58     20:07    Daglengte: 14:09 Zondag 28 Aug
02:00
14°
1023.2 hPa 0.1 mm 11.0°
1
44%
08:00
16°
1022.8 hPa   11.6°
1
44%
14:00
25°
1022.5 hPa 0.1 mm 11.3°
1
48%
20:00
19°
1021.9 hPa 0.4 mm 11.6°
1
54%
 06:00     20:05    Daglengte: 14:05 Maandag 29 Aug
02:00
14°
1021.8 hPa 0.2 mm 11.6°
1
44%
08:00
16°
1021.1 hPa 0.1 mm 12.1°
1
55%
14:00
24°
1020.7 hPa 0.3 mm 10.6°
0
51%
20:00
18°
1020.2 hPa 0.8 mm 10.3°
0
45%
 06:02     20:02    Daglengte: 14:00 Dinsdag 30 Aug
02:00
13°
1020.4 hPa 0.1 mm 10.2°
0
37%
08:00
15°
1020.0 hPa 0.3 mm 10.5°
1
43%
14:00
22°
1019.8 hPa 0.5 mm 10.1°
0
49%
20:00
17°
1019.4 hPa 0.4 mm 9.9°
0
49%
 06:04     19:59    Daglengte: 13:55 Woensdag 31 Aug
02:00
13°
1019.6 hPa 0.3 mm 10.2°
0
42%
08:00
15°
1018.9 hPa 0.2 mm 10.3°
1
39%
14:00
23°
1017.9 hPa 0.2 mm 9.2°
0
40%
20:00
17°
1017.0 hPa 0.8 mm 10.3°
0
43%
 06:06     19:57    Daglengte: 13:51 Donderdag 01 Sep
02:00
13°
1016.8 hPa 0.6 mm 10.0°
0
48%
08:00
14°
1016.3 hPa 0.2 mm 10.1°
0
46%
14:00
21°
1015.9 hPa 0.6 mm 10.2°
1
44%
20:00
16°
1015.5 hPa 0.4 mm 9.9°
1
58%
  CAPE Lifted Index Hail Supercell Tornado SRH 3km CL BTM PRES CL TOP PRES Swiss DWD icon SMHI TS
 05:37     20:33    Daglengte: 14:56 Vandaag
01:00 0 J/kg 0.2 K 0 % 0 % 0 % 0 m²/s² 0 0 2.18 3
02:00 0 J/kg 0.2 K 0 % 0 % 0 % 0 m²/s² 0 0 2.51 3
03:00 0 J/kg -0.4 K 0 % 0 % 0 % 0 m²/s² 0 0 1.85 3
04:00 0 J/kg -0.7 K 0 % 0 % 0 % 0 m²/s² 0 0 1.55 3
05:00 0 J/kg -0.7 K 0 % 0 % 0 % 0 m²/s² 0 0 1.34 3
06:00 0 J/kg 0.1 K 0 % 0 % 0 % 0 m²/s² 0 0 2.08 2
07:00 0 J/kg 0.2 K 0 % 0 % 0 % 0 m²/s² 0 0 2.3 3
08:00 0 J/kg -0.1 K 0 % 0 % 0 % 0 m²/s² 0 0 1.88 2
09:00 0 J/kg -0.7 K 0 % 0 % 0 % 0 m²/s² 0 0 0.89 3
10:00 214 J/kg -1.3 K 0 % 0 % 0 % 0 m²/s² 0 0 0.02 3
11:00 284 J/kg -1.4 K 0 % 0 % 0 % 0 m²/s² 0 0 -0.29 2
12:00 82 J/kg -0.5 K 0 % 0 % 0 % 0 m²/s² 0 0 0.52 1
13:00 17 J/kg -0.1 K 0 % 0 % 0 % 0 m²/s² 0 0 0.65 3
14:00 156 J/kg -0.7 K 0 % 0 % 0 % 0 m²/s² 0 0 0.26 3
15:00 495 J/kg -1.7 K 0 % 0 % 0 % 0 m²/s² 0 0 -0.53 3
16:00 666 J/kg -2.1 K 0 % 0 % 0 % 0 m²/s² 0 0 -0.78 3
17:00 721 J/kg -2.5 K 0 % 0 % 0 % 0 m²/s² 0 0 -0.04 2
18:00 592 J/kg -2.3 K 0 % 0 % 0 % 0 m²/s² 0 0 0.91 1
19:00 500 J/kg -2.2 K 0 % 0 % 0 % 0 m²/s² 0 0 1.28 1
20:00 670 J/kg -2.7 K 0 % 0 % 0 % 0 m²/s² 0 0 0.33 2
21:00 705 J/kg -2.6 K 0 % 0 % 0 % 0 m²/s² 0 0 0.16 2
22:00 376 J/kg -1.4 K 0 % 0 % 0 % 0 m²/s² 0 0 1.06 3
23:00 266 J/kg -1.8 K 0 % 0 % 0 % 0 m²/s² 0 0 -0.24 3
 05:39     20:30    Daglengte: 14:51 Morgen
00:00 220 J/kg -1.4 K 0 % 0 % 0 % 0 m²/s² 0 0 -0.44 1
01:00 189 J/kg -1.7 K 0 % 0 % 0 % 0 m²/s² 0 0 -1.43 1
02:00 177 J/kg -1.8 K 0 % 0 % 0 % 0 m²/s² 0 0 -1.35 1
03:00 53 J/kg -1.3 K 0 % 0 % 0 % 0 m²/s² 0 0 -0.76 1
04:00 0 J/kg -1.0 K 0 % 0 % 0 % 0 m²/s² 0 0 -0.7 1
05:00 14 J/kg -1.7 K 0 % 0 % 0 % 0 m²/s² 0 0 -1.13 1
06:00 0 J/kg -0.6 K 0 % 0 % 0 % 0 m²/s² 0 0 -0.15 1
07:00 0 J/kg -0.5 K 0 % 0 % 0 % 0 m²/s² 0 0 -0.5 3
08:00 0 J/kg -0.7 K 0 % 0 % 0 % 0 m²/s² 0 0 -0.61 3
09:00 0 J/kg -2.0 K 0 % 0 % 0 % 0 m²/s² 0 0 -1.91 3
10:00 0 J/kg -1.9 K 0 % 0 % 0 % 0 m²/s² 0 0 -1.72 3
11:00 294 J/kg -2.3 K 0 % 0 % 0 % 0 m²/s² 0 0 -2.12 3
12:00 1129 J/kg -3.4 K 0 % 0 % 0 % 0 m²/s² 0 0 -3.19 3
13:00 1030 J/kg -3.4 K 0 % 0 % 0 % 0 m²/s² 0 0 -2.95 3
14:00 1089 J/kg -3.5 K 0 % 0 % 0 % 0 m²/s² 0 0 -3.41 3
15:00 153 J/kg -2.2 K 0 % 0 % 0 % 0 m²/s² 0 0 -1.75 3
16:00 518 J/kg -2.3 K 0 % 0 % 0 % 0 m²/s² 0 0 -2.12 80
17:00 800 J/kg -3.2 K 0 % 0 % 0 % 0 m²/s² 0 0 -3.02 95
18:00 833 J/kg -3.6 K 0 % 0 % 0 % 0 m²/s² 0 0 -2.73 80
19:00 859 J/kg -3.8 K 0 % 0 % 0 % 0 m²/s² 0 0 -2.57 80
20:00 862 J/kg -3.5 K 0 % 0 % 0 % 0 m²/s² 0 0 -2.15 80
21:00 917 J/kg -3.6 K 0 % 0 % 0 % 0 m²/s² 0 0 -2.64 3
22:00 796 J/kg -3.3 K 0 % 0 % 0 % 0 m²/s² 0 0 -2.28 80
23:00 408 J/kg -2.9 K 0 % 0 % 0 % 0 m²/s² 0 0 -2.09 3
 05:41     20:28    Daglengte: 14:47 Zaterdag 20 Aug
00:00 33 J/kg -1.8 K 0 % 0 % 0 % 0 m²/s² 0 0 -0.93 80
01:00 0 J/kg -1.4 K 0 % 0 % 0 % 0 m²/s² 0 0 -0.53 3
02:00 0 J/kg -1.1 K 0 % 0 % 0 % 0 m²/s² 0 0 -0.47 3
03:00 0 J/kg -1.2 K 0 % 0 % 0 % 0 m²/s² 0 0 -0.84 3
04:00 0 J/kg -0.6 K 0 % 0 % 0 % 0 m²/s² 0 0 -0.21 80
05:00 0 J/kg -0.2 K 0 % 0 % 0 % 0 m²/s² 0 0 0.1 80
06:00 0 J/kg 0.6 K 0 % 0 % 0 % 0 m²/s² 0 0 0.78 3
07:00 0 J/kg 2.3 K 0 % 0 % 0 % 0 m²/s² 0 0 2.3 3
08:00 0 J/kg 2.5 K 0 % 0 % 0 % 0 m²/s² 0 0 2.77 3
09:00 0 J/kg 3.8 K 0 % 0 % 0 % 0 m²/s² 0 0 3.92 2
10:00 0 J/kg 4.2 K 0 % 0 % 0 % 0 m²/s² 0 0 4.5 2
11:00 0 J/kg 5.6 K 0 % 0 % 0 % 0 m²/s² 0 0 5.72 2
12:00 0 J/kg 5.6 K 0 % 0 % 0 % 0 m²/s² 0 0 6.14 3
13:00 0 J/kg 4.5 K 0 % 0 % 0 % 0 m²/s² 0 0 5.13 3
14:00 0 J/kg 3.7 K 0 % 0 % 0 % 0 m²/s² 0 0 4.96 3
15:00 0 J/kg 3.3 K 0 % 0 % 0 % 0 m²/s² 0 0 6.06 2
16:00 0 J/kg 2.4 K 0 % 0 % 0 % 0 m²/s² 0 0 6.33 3
17:00 11 J/kg 0.4 K 0 % 0 % 0 % 0 m²/s² 0 0 4.03 3
18:00 95 J/kg -0.4 K 0 % 0 % 0 % 0 m²/s² 0 0 1.58 3
19:00 18 J/kg 0.9 K 0 % 0 % 0 % 0 m²/s² 0 0 2.4 3
20:00 0 J/kg 2.1 K 0 % 0 % 0 % 0 m²/s² 0 0 4.65 2
21:00 0 J/kg 2.7 K 0 % 0 % 0 % 0 m²/s² 0 0 5.79 3
22:00 0 J/kg 5.4 K 0 % 0 % 0 % 0 m²/s² 0 0 9.96 3
23:00 0 J/kg 7.2 K 0 % 0 % 0 % 0 m²/s² 0 0 14.76 3
 05:43     20:25    Daglengte: 14:42 Zondag 21 Aug
00:00 0 J/kg 7.6 K 0 % 0 % 0 % 0 m²/s² 0 0 14.92 3
Temp Baro Wind Neerslag
  EWN Forecast EWN WRFDA DWD ICON FMI HIRLAM MET Norway GFS
 05:37     20:33    Daglengte: 14:56 Vandaag
02:00 18.5° 1014.5 hPa 1.3 m/s 0.0 mm 16.9° 1013.8 hPa 2.6 m/s 0.0 mm 18.4° 1014.7 hPa 0.9 m/s -2.0 mm 18.3° 1014.6 hPa 1.2 m/s 0.0 mm 17.2° 1013.6 hPa 1.3 m/s
05:00 17.7° 1014.1 hPa 1.1 m/s 0.0 mm 16.2° 1013.5 hPa 2.3 m/s 0.0 mm 17.7° 1014.0 hPa 0.9 m/s 0.0 mm 17.0° 1014.7 hPa 1.6 m/s 0.0 mm 16.9° 1013.7 hPa 1.3 m/s
08:00 20.6° 1014.5 hPa 1.2 m/s 0.0 mm 20.5° 1014.1 hPa 2.0 m/s 0.0 mm 20.9° 1014.6 hPa 0.8 m/s 0.0 mm 18.8° 1014.9 hPa 1.1 m/s 0.0 mm 20.6° 1014.2 hPa 2.0 m/s
11:00 25.6° 1014.3 hPa 2.3 m/s 0.0 mm 26.0° 1013.9 hPa 2.5 m/s 0.0 mm 25.8° 1014.2 hPa 2.4 m/s 0.0 mm 25.4° 1014.9 hPa 1.9 m/s 0.0 mm 26.3° 1013.6 hPa 2.4 m/s
14:00 28.4° 1013.2 hPa 3.2 m/s 0.0 mm 28.6° 1012.7 hPa 3.2 m/s 0.0 mm 28.4° 1013.2 hPa 3.3 m/s 0.0 mm 28.8° 1013.5 hPa 3.3 m/s 0.0 mm 22.6° 1013.5 hPa 1.4 m/s
17:00 28.3° 1012.3 hPa 3.8 m/s 0.0 mm 28.6° 1011.8 hPa 4.8 m/s 0.2 mm 28.9° 1012.2 hPa 3.6 m/s 0.0 mm 26.5° 1013.0 hPa 4.2 m/s 0.0 mm 27.1° 1012.5 hPa 2.0 m/s
20:00 24.8° 1012.4 hPa 3.0 m/s 0.0 mm 24.2° 1012.2 hPa 3.0 m/s 0.4 mm 25.0° 1012.4 hPa 2.6 m/s 0.0 mm 23.8° 1012.8 hPa 2.9 m/s 0.0 mm 22.8° 1012.5 hPa 1.9 m/s
23:00 20.3° 1013.1 hPa 2.4 m/s 0.0 mm 19.3° 1012.8 hPa 2.7 m/s 0.4 mm 20.2° 1013.1 hPa 2.3 m/s 0.0 mm 19.6° 1013.5 hPa 2.4 m/s 0.0 mm 18.1° 1013.3 hPa 1.6 m/s
 05:39     20:30    Daglengte: 14:51 Morgen
02:00 18.6° 1012.9 hPa 2.1 m/s 0.0 mm 18.9° 1012.3 hPa 1.4 m/s 0.4 mm 18.3° 1012.9 hPa 2.3 m/s 0.0 mm 17.5° 1013.8 hPa 1.3 m/s 0.0 mm 16.9° 1013.2 hPa 1.7 m/s
05:00 18.1° 1012.5 hPa 1.8 m/s 0.0 mm 18.6° 1011.6 hPa 1.7 m/s 0.6 mm 17.8° 1012.4 hPa 1.8 m/s 0.0 mm 17.2° 1013.9 hPa 0.7 m/s 0.0 mm 17.6° 1013.1 hPa 0.9 m/s
08:00 20.2° 1012.9 hPa 2.1 m/s 0.0 mm 18.9° 1010.0 hPa 4.2 m/s 24.9 mm 20.5° 1013.0 hPa 1.2 m/s 0.0 mm 18.7° 1014.8 hPa 1.9 m/s 0.0 mm 19.5° 1013.3 hPa 0.7 m/s
11:00 24.2° 1013.2 hPa 1.6 m/s 0.0 mm 21.0° 1010.0 hPa 2.4 m/s 54.6 mm 26.0° 1012.3 hPa 2.8 m/s 0.0 mm 20.4° 1015.8 hPa 1.1 m/s 0.0 mm 26.5° 1013.0 hPa 1.1 m/s
14:00 26.5° 1012.8 hPa 1.7 m/s 0.0 mm 23.2° 1009.0 hPa 1.1 m/s 57.7 mm 27.4° 1011.6 hPa 2.5 m/s 0.0 mm 25.2° 1015.7 hPa 1.2 m/s 0.0 mm 28.3° 1011.9 hPa 2.3 m/s
17:00 22.8° 1011.8 hPa 1.4 m/s 14.1 mm 22.0° 1009.8 hPa 3.5 m/s 115.5 mm 21.6° 1011.9 hPa 0.9 m/s 2.2 mm 19.9° 1012.3 hPa 1.7 m/s
20:00 20.8° 1011.5 hPa 2.0 m/s 25.2 mm 20.8° 1010.1 hPa 1.7 m/s 116.6 mm 20.6° 1011.3 hPa 1.6 m/s 3.5 mm 19.0° 1012.1 hPa 0.7 m/s
23:00 19.3° 1011.6 hPa 1.9 m/s 30.3 mm 18.2° 1011.3 hPa 2.2 m/s 116.8 mm 19.9° 1010.6 hPa 1.0 m/s 0.5 mm 17.8° 1012.0 hPa 2.1 m/s
 05:41     20:28    Daglengte: 14:47 Zaterdag 20 Aug
02:00 18.9° 1010.9 hPa 1.7 m/s 21.1 mm 16.0° 1010.8 hPa 2.2 m/s 116.8 mm 19.3° 1009.6 hPa 1.5 m/s 0.6 mm 16.9° 1011.3 hPa 1.4 m/s
05:00 18.3° 1010.5 hPa 2.1 m/s 31.6 mm 14.8° 1010.6 hPa 2.3 m/s 116.8 mm 18.7° 1008.9 hPa 2.4 m/s 0.8 mm 17.0° 1010.1 hPa 1.5 m/s
08:00 18.3° 1010.6 hPa 3.0 m/s 28.2 mm 16.0° 1010.5 hPa 3.2 m/s 116.8 mm 18.4° 1009.9 hPa 3.4 m/s 0.0 mm 17.7° 1010.6 hPa 1.9 m/s
11:00 20.4° 1011.0 hPa 2.4 m/s 0.0 mm 19.9° 1010.9 hPa 2.1 m/s 116.8 mm 21.2° 1010.8 hPa 4.7 m/s 0.0 mm 18.9° 1010.6 hPa 3.0 m/s
14:00 22.4° 1011.1 hPa 4.8 m/s 0.0 mm 23.3° 1010.7 hPa 2.8 m/s 116.8 mm 22.2° 1011.2 hPa 5.3 m/s 0.0 mm 23.0° 1010.9 hPa 2.2 m/s
17:00 21.5° 1012.0 hPa 4.6 m/s 0.0 mm 23.4° 1010.5 hPa 4.5 m/s 116.8 mm 21.1° 1012.3 hPa 4.6 m/s 0.0 mm 25.0° 1010.3 hPa 3.6 m/s
20:00 18.1° 1013.1 hPa 3.0 m/s 0.0 mm 19.6° 1011.2 hPa 3.1 m/s 116.8 mm 17.7° 1013.6 hPa 3.0 m/s 0.0 mm 20.0° 1011.7 hPa 3.5 m/s
23:00 14.5° 1013.6 hPa 1.5 m/s 0.0 mm 13.9° 1012.0 hPa 2.7 m/s 116.8 mm 14.6° 1014.0 hPa 1.3 m/s 0.0 mm 15.1° 1012.5 hPa 2.2 m/s
 05:43     20:25    Daglengte: 14:42 Zondag 21 Aug
02:00 13.5° 1013.7 hPa 1.2 m/s 0.0 mm 11.1° 1012.3 hPa 2.4 m/s 116.8 mm 14.1° 1014.1 hPa 0.9 m/s 0.0 mm 14.1° 1013.4 hPa 1.9 m/s
05:00 12.0° 1013.8 hPa 1.8 m/s 8.3 mm 12.0° 1013.8 hPa 1.8 m/s 8.3 mm
08:00 15.5° 1014.4 hPa 1.7 m/s 8.3 mm 15.5° 1014.4 hPa 1.7 m/s 8.3 mm
11:00 20.6° 1014.1 hPa 2.1 m/s 8.3 mm 20.6° 1014.1 hPa 2.1 m/s 8.3 mm
14:00 23.4° 1013.4 hPa 2.3 m/s 8.3 mm 23.4° 1013.4 hPa 2.3 m/s 8.3 mm
17:00 23.5° 1012.8 hPa 2.8 m/s 8.3 mm 23.5° 1012.8 hPa 2.8 m/s 8.3 mm
20:00 18.2° 1013.7 hPa 2.4 m/s 8.3 mm 18.2° 1013.7 hPa 2.4 m/s 8.3 mm
23:00 14.1° 1013.9 hPa 1.9 m/s 8.3 mm 14.1° 1013.9 hPa 1.9 m/s 8.3 mm
 05:45     20:23    Daglengte: 14:38 Maandag 22 Aug
02:00 13.1° 1014.4 hPa 1.7 m/s 8.3 mm 13.1° 1014.4 hPa 1.7 m/s 8.3 mm
05:00 11.8° 1015.3 hPa 2.1 m/s 8.3 mm 11.8° 1015.3 hPa 2.1 m/s 8.3 mm
08:00 14.9° 1016.9 hPa 2.9 m/s 8.3 mm 14.9° 1016.9 hPa 2.9 m/s 8.3 mm
11:00 19.3° 1017.5 hPa 2.9 m/s 8.3 mm 19.3° 1017.5 hPa 2.9 m/s 8.3 mm
14:00 22.1° 1017.7 hPa 2.5 m/s 8.3 mm 22.1° 1017.7 hPa 2.5 m/s 8.3 mm
17:00 22.5° 1018.0 hPa 2.3 m/s 8.3 mm 22.5° 1018.0 hPa 2.3 m/s 8.3 mm
20:00 16.8° 1019.2 hPa 2.2 m/s 8.3 mm 16.8° 1019.2 hPa 2.2 m/s 8.3 mm
23:00 13.1° 1020.4 hPa 2.4 m/s 8.3 mm 13.1° 1020.4 hPa 2.4 m/s 8.3 mm
 05:47     20:20    Daglengte: 14:33 Dinsdag 23 Aug
02:00 11.6° 1021.2 hPa 2.2 m/s 8.3 mm 11.6° 1021.2 hPa 2.2 m/s 8.3 mm
05:00 10.5° 1022.1 hPa 2.1 m/s 8.3 mm 10.5° 1022.1 hPa 2.1 m/s 8.3 mm
08:00 14.7° 1022.6 hPa 2.2 m/s 8.3 mm 14.7° 1022.6 hPa 2.2 m/s 8.3 mm
11:00 22.2° 1022.6 hPa 1.4 m/s 8.3 mm 22.2° 1022.6 hPa 1.4 m/s 8.3 mm
14:00 25.1° 1022.2 hPa 1.5 m/s 8.3 mm 25.1° 1022.2 hPa 1.5 m/s 8.3 mm
17:00 24.8° 1021.8 hPa 1.8 m/s 8.3 mm 24.8° 1021.8 hPa 1.8 m/s 8.3 mm
20:00 18.3° 1023.0 hPa 3.2 m/s 8.3 mm 18.3° 1023.0 hPa 3.2 m/s 8.3 mm
23:00 13.2° 1024.1 hPa 1.3 m/s 8.3 mm 13.2° 1024.1 hPa 1.3 m/s 8.3 mm
 05:49     20:18    Daglengte: 14:29 Woensdag 24 Aug
02:00 11.8° 1024.1 hPa 1.8 m/s 8.3 mm 11.8° 1024.1 hPa 1.8 m/s 8.3 mm
05:00 12.4° 1023.4 hPa 1.9 m/s 8.3 mm 12.4° 1023.4 hPa 1.9 m/s 8.3 mm
08:00 15.9° 1023.3 hPa 2.3 m/s 8.3 mm 15.9° 1023.3 hPa 2.3 m/s 8.3 mm
11:00 22.0° 1022.6 hPa 2.4 m/s 8.3 mm 22.0° 1022.6 hPa 2.4 m/s 8.3 mm
14:00 24.4° 1021.6 hPa 2.1 m/s 8.3 mm 24.4° 1021.6 hPa 2.1 m/s 8.3 mm
17:00 24.0° 1021.1 hPa 1.2 m/s 8.4 mm 24.0° 1021.1 hPa 1.2 m/s 8.4 mm
20:00 20.5° 1021.3 hPa 1.4 m/s 8.9 mm 20.5° 1021.3 hPa 1.4 m/s 8.9 mm
23:00 17.1° 1022.2 hPa 1.7 m/s 9.2 mm 17.1° 1022.2 hPa 1.7 m/s 9.2 mm
 05:51     20:15    Daglengte: 14:24 Donderdag 25 Aug
02:00 15.8° 1022.2 hPa 1.5 m/s 9.6 mm 15.8° 1022.2 hPa 1.5 m/s 9.6 mm
08:00 17.4° 1022.5 hPa 1.5 m/s 10.2 mm 17.4° 1022.5 hPa 1.5 m/s 10.2 mm
14:00 20.1° 1023.0 hPa 2.3 m/s 10.4 mm 20.1° 1023.0 hPa 2.3 m/s 10.4 mm
20:00 18.7° 1023.2 hPa 2.4 m/s 11.1 mm 18.7° 1023.2 hPa 2.4 m/s 11.1 mm
 05:53     20:13    Daglengte: 14:20 Vrijdag 26 Aug
02:00 15.2° 1023.5 hPa 2.2 m/s 11.6 mm 15.2° 1023.5 hPa 2.2 m/s 11.6 mm
08:00 16.9° 1023.3 hPa 3.2 m/s 12.8 mm 16.9° 1023.3 hPa 3.2 m/s 12.8 mm
14:00 28.4° 1021.8 hPa 4.3 m/s 12.8 mm 28.4° 1021.8 hPa 4.3 m/s 12.8 mm
20:00 19.9° 1022.3 hPa 3.7 m/s 12.8 mm 19.9° 1022.3 hPa 3.7 m/s 12.8 mm
 05:55     20:10    Daglengte: 14:15 Zaterdag 27 Aug
02:00 15.0° 1022.2 hPa 2.8 m/s 12.8 mm 15.0° 1022.2 hPa 2.8 m/s 12.8 mm
08:00 19.7° 1021.1 hPa 3.4 m/s 12.8 mm 19.7° 1021.1 hPa 3.4 m/s 12.8 mm
14:00 30.9° 1020.5 hPa 3.2 m/s 12.8 mm 30.9° 1020.5 hPa 3.2 m/s 12.8 mm
20:00 18.8° 1022.8 hPa 1.1 m/s 0.3 mm
 05:58     20:07    Daglengte: 14:09 Zondag 28 Aug
02:00 14.0° 1023.2 hPa 1.0 m/s 0.1 mm
08:00 16.4° 1022.8 hPa 1.4 m/s 0.0 mm
14:00 24.7° 1022.5 hPa 1.0 m/s 0.1 mm
20:00 18.7° 1021.9 hPa 0.9 m/s 0.4 mm
 06:00     20:05    Daglengte: 14:05 Maandag 29 Aug
02:00 14.3° 1021.8 hPa 0.7 m/s 0.2 mm
08:00 16.1° 1021.1 hPa 0.8 m/s 0.1 mm
14:00 24.0° 1020.7 hPa 0.1 m/s 0.3 mm
20:00 17.9° 1020.2 hPa 0.3 m/s 0.8 mm
 06:02     20:02    Daglengte: 14:00 Dinsdag 30 Aug
02:00 12.9° 1020.4 hPa 0.1 m/s 0.1 mm
08:00 14.8° 1020.0 hPa 0.7 m/s 0.3 mm
14:00 21.6° 1019.8 hPa 0.2 m/s 0.5 mm
20:00 16.9° 1019.4 hPa 0.3 m/s 0.4 mm
 06:04     19:59    Daglengte: 13:55 Woensdag 31 Aug
02:00 12.9° 1019.6 hPa 0.3 m/s 0.3 mm
08:00 14.7° 1018.9 hPa 0.7 m/s 0.2 mm
14:00 22.9° 1017.9 hPa 0.3 m/s 0.2 mm
20:00 16.9° 1017.0 hPa 0.1 m/s 0.8 mm
 06:06     19:57    Daglengte: 13:51 Donderdag 01 Sep
02:00 13.2° 1016.8 hPa 0.3 m/s 0.6 mm
08:00 14.5° 1016.3 hPa 0.4 m/s 0.2 mm
14:00 21.3° 1015.9 hPa 1.0 m/s 0.6 mm
20:00 16.1° 1015.5 hPa 0.6 m/s 0.4 mm
FMI Hirlam - 7.5 km EWN WRFDA - 12 km DWD ICON - 7 km GFS - 25 km Basiskaart






























































Updatetijd (Europe/Amsterdam) Resolutie Lengte Stap
FMI Hirlam 19:15, 01:15, 07:15, 13:15 7.5 km 49h 1h
EWN WRFDA 22:30, 04:30, 10:30, 16:30 12 km 73h 1h
DWD ICON 23:45, 05:45, 11:45, 17:45 7 km 75h 1h
GFS 20:00, 02:00, 08:00, 14:00 25 km 237h 3h
30+ mm
25-30 mm
20-25 mm
15-20 mm
10-15 mm
6-10 mm
4-6 mm
2-4 mm
1-2 mm
0.5-1 mm
0.2-0.5 mm
0.1-0.2 mm
30+ mm
25-30 mm
20-25 mm
15-20 mm
10-15 mm
6-10 mm
4-6 mm
2-4 mm
1-2 mm
0.5-1 mm
0.2-0.5 mm
0.1-0.2 mm
Sneeuwval
Natte sneeuw
Hagel
Vorst
30+ mm
25-30 mm
20-25 mm
15-20 mm
10-15 mm
6-10 mm
4-6 mm
2-4 mm
1-2 mm
0.5-1 mm
0.2-0.5 mm
0.1-0.2 mm
Sneeuwval
Natte sneeuw
Hagel
Vorst
Onweer
50 mm
40 mm
30 mm
26 mm
22 mm
18 mm
14 mm
10 mm
9 mm
8 mm
7 mm
6 mm
5 mm
4.5 mm
4 mm
3.5 mm
3 mm
2.5 mm
2 mm
1.5 mm
1 mm
0.8 mm
0.6 mm
0.4 mm
0.2 mm
0.05 mm
35°
30°
25°
20°
15°
10°
-5°
-10°
-15°
-20°
-25°
-30°
-35°
33> m/s
29 m/s
25 m/s
21 m/s
17 m/s
14 m/s
11 m/s
8 m/s
5 m/s
3 m/s
0 m/s
2600 J/kg
2400 J/kg
2200 J/kg
2000 J/kg
1800 J/kg
1600 J/kg
1400 J/kg
1200 J/kg
1000 J/kg
800 J/kg
600 J/kg
400 J/kg
200 J/kg
70 dBZ
65 dBZ
60 dBZ
55 dBZ
50 dBZ
45 dBZ
40 dBZ
35 dBZ
30 dBZ
25 dBZ
20 dBZ
15 dBZ
10 dBZ
5 dBZ
-1 K
-2 K
-3 K
-4 K
-5 K
-6 K
-7 K
-8 K
-9 K
950 m²/s²
900 m²/s²
850 m²/s²
800 m²/s²
750 m²/s²
700 m²/s²
650 m²/s²
600 m²/s²
550 m²/s²
500 m²/s²
450 m²/s²
400 m²/s²
350 m²/s²
300 m²/s²
250 m²/s²
200 m²/s²
150 m²/s²
100 m²/s²
46 m/s
44 m/s
42 m/s
40 m/s
38 m/s
36 m/s
34 m/s
32 m/s
30 m/s
28 m/s
26 m/s
24 m/s
22 m/s
20 m/s
16 m/s
12 m/s
8 m/s
4 m/s
30 m/s
28 m/s
26 m/s
24 m/s
22 m/s
20 m/s
18 m/s
16 m/s
14 m/s
12 m/s
10 m/s
8 m/s
6 m/s
4 m/s
2 m/s
3.0
2.8
2.6
2.4
2.2
2.0
1.8
1.6
1.4
1.2
1.0
0.8
0.6
0.4
0.2
15
14
13
12
11
10
9
8
7
6
5
4
3
2
1
90%
80%
70%
60%
50%
40%
30%
20%
10%
42
40
38
36
34
32
30
28
26
24
22
20
18
16
14
12
90+ cm
80-90 cm
70-80 cm
60-70 cm
50-60 cm
40-50 cm
30-40 cm
20-30 cm
10-20 cm
1-10 cm
Sneeuwval
Natte sneeuw
Regen
>120 mm
115 mm
110 mm
105 mm
100 mm
95 mm
90 mm
85 mm
80 mm
75 mm
70 mm
65 mm
60 mm
55 mm
50 mm
45 mm
45 mm
40 mm
35 mm
30 mm
25 mm
20 mm
15 mm
10 mm
5 mm
0.1 mm
960 hPa
880 hPa
800 hPa
720 hPa
640 hPa
560 hPa
584 gpdm
568 gpdm
552 gpdm
536 gpdm
520 gpdm
504 gpdm
488 gpdm
Extreem zwaar Noodweer Kans op onweer
15% 15% 5% 50% 15%

Dag




Kaart






35°
30°
25°